Погода в Тикале

Гватемала     16°47′59″N   89°56′03″W
темп.,
°C
ветер,
м/с
пор.,
м/с
влажн.,
%
обл.,
%
осадки,
мм/ч
давл.,
гПа
погр.,
м
9 августа, вт
вт900:00+21ююв0199100 2.8 101518
03:00+21з0099100 0.0 101417
06:00+21зюз019992 0.0 101519
09:00+25з1182100 0.3 1016411
12:00+28ссв236998 1.4 10141161
15:00+31вюв2458100 1.6 10121459
18:00+23ю1498100 5.1 101394
21:00+22вюв119991 2.1 101538
10 августа, ср
ср1000:00+21ююз0110077 6.4 101538
03:00+21юз1310070 0.9 1014121
06:00+21ю12100100 0.9 101478
09:00+26вюв117567 0.0 1016585
12:00+25в148481 0.3 1015329
15:00+26в258293 0.6 1013364
18:00+25св278670 0.7 1014400
21:00+22св1499100 1.3 1015109
11 августа, чт
чт1100:00+22всв119978 2.2 101620
03:00+21ю0010041 3.0 101319
06:00+21юз0010084 3.0 101424
09:00+24св1195100 0.0 1016192
12:00+30в246045 0.2 10141308
15:00+28юв137795 2.0 1012496
18:00+25в1780100 2.0 1013230
21:00+25в1777100 0.0 1015251
12 августа, пт
пт1200:00+23юз138991 0.0 101590
03:00+21юз019961 0.0 101415
06:00+21юв0010068 0.0 101420
09:00+28вюв12665 0.0 1015784
12:00+32в23466 0.0 10141997
15:00+34юв133914 0.0 10111819
18:00+25юз118990 0.4 101114
21:00+23вюв12975 1.9 101451
13 августа, сб
сб1300:00+22ю119811 2.1 101419
03:00+21в119919 0.0 101316
06:00+20в119936 0.0 101422
09:00+27вюв12675 0.0 1015620
12:00+33вюв12415 0.0 10141817
15:00+34вюв12375 0.0 10111783
18:00+28в266960 0.0 1012236
21:00+25юв278137 0.0 1013235